Location: *
(40.7873°S, 98.7174°E)
Time: 22:33:31
(UTC+00:00)

Cosmos 1153 Rocket - Pass Details

Date: 16 October 2022
Orbit: 953 x 1007 km, 82.9° (Epoch: 08 December)

Event Time Altitude Azimuth Distance (km) Brightness Sun altitude
Rises 19:05:42 0° 195° (SSW) 3,669 8.0 -33.5°
Reaches altitude 10° 19:08:20 10° 201° (SSW) 2,714 7.2 -33.2°
Enters shadow 19:11:30 28° 221° (SW) 1,720 5.8 -32.9°
